Погода в Эль-Бейда

Йемен     13°59′10″N   45°34′25″E
темп.,
°C
ветер,
м/с
пор.,
м/с
влажн.,
%
обл.,
%
осадки,
мм/ч
давл.,
гПа
погр.,
м
27 ноября, сб
сб2700:00+15св11510 0.0 101912
03:00+14с22515 0.0 101914
06:00+13с33530 0.0 102119
09:00+19ссв66380 0.0 1020982
12:00+23св56260 0.0 10162089
15:00+23св77234 0.0 10152558
18:00+19св69310 0.0 1018593
21:00+17ссв410380 0.0 1020343
28 ноября, вс
вс2800:00+15с33430 0.0 102046
03:00+14с45470 0.0 101962
06:00+12с33505 0.0 102136
09:00+17ссв68320 0.0 1021837
12:00+21ссв77230 0.0 10181846
15:00+22ссв77215 0.0 10151886
18:00+18ссв710280 0.0 1018401
21:00+15ссв49310 0.0 1021220
29 ноября, пн
пн2900:00+14с33330 0.0 102020
03:00+13с59365 0.0 1020180
06:00+11с44425 0.0 102246
09:00+16ссв810300 0.0 1022939
12:00+20ссв88220 0.0 10191615
15:00+20ссв88210 0.0 10161757
18:00+16ссв610300 0.0 1019431
21:00+14ссв35350 0.0 102182
30 ноября, вт
вт3000:00+13с512380 0.0 1021344
03:00+11ссв612460 0.0 1020288
06:00+9с5105322 0.0 1022194
09:00+15ссв810356 0.0 1021848
12:00+19ссв782111 0.0 10171474
15:00+20ссв881935 0.0 10151701
18:00+16ссв710250 0.0 1017354
21:00+13св35335 0.0 102092
1 декабря, ср
ср100:00+11с510380 0.0 1019228
03:00+10с611360 0.0 1019220
06:00+8с45360 0.0 102074
09:00+15ссв79270 0.0 1020818
12:00+19ссв66150 0.0 10151458
15:00+20ссв65120 0.0 10131671
18:00+15св610180 0.0 1016282
21:00+12св33250 0.0 101950